When you browse on this site, cookies collect data to enhance your experience and personalize the content and advertising you see.
Visit our Privacy Policy to learn more. By continuing to use the site, you agree to this use of cookies and data.
  • In Latvia
  • List of Countries
  • For 7 days
  • Water Temperature
  • Weather Map
  • Weather Widgets
  • user-avatar
    Login

    Hourly Weather Zurawka

    Today, 22 February, Saturday

    Time Temperature Precipitation Wind Pressure Humidity
    00:00 0°C° 0 mm 4 mps 754 mmHg 88%
    01:00 -1°C° 0 mm 4 mps 754 mmHg 89%
    02:00 -1°C° 0 mm 4 mps 754 mmHg 89%
    03:00 -1°C° 0 mm 4 mps 754 mmHg 89%
    04:00 -1°C° 0 mm 4 mps 753 mmHg 89%
    05:00 -1°C° 0 mm 5 mps 753 mmHg 86%
    06:00 -1°C° 0 mm 5 mps 753 mmHg 84%
    07:00 -1°C° 0 mm 5 mps 753 mmHg 81%
    08:00 -1°C° 0 mm 6 mps 752 mmHg 74%
    09:00 +2°C° 0 mm 7 mps 752 mmHg 67%
    10:00 +2°C° 0 mm 8 mps 751 mmHg 60%
    11:00 +4°C° 0 mm 8 mps 750 mmHg 59%
    12:00 +3°C° 0 mm 9 mps 750 mmHg 59%
    13:00 +5°C° 0 mm 9 mps 749 mmHg 58%
    14:00 +5°C° 0 mm 9 mps 748 mmHg 57%
    15:00 +5°C° 0 mm 9 mps 747 mmHg 55%
    16:00 +6°C° 0 mm 8 mps 746 mmHg 54%
    17:00 +6°C° 0 mm 9 mps 746 mmHg 53%
    18:00 +6°C° 0 mm 9 mps 746 mmHg 52%
    19:00 +6°C° 0 mm 9 mps 746 mmHg 52%
    20:00 +6°C° 0 mm 9 mps 745 mmHg 52%
    21:00 +6°C° 0 mm 9 mps 745 mmHg 53%
    22:00 +6°C° 0 mm 9 mps 744 mmHg 54%
    23:00 +6°C° 0 mm 10 mps 744 mmHg 60%

    Tomorrow, 23 February, Sunday

    Time Temperature Precipitation Wind Pressure Humidity
    00:00 +6°C° 0 mm 10 mps 744 mmHg 66%
    01:00 +6°C° 0 mm 10 mps 745 mmHg 71%
    02:00 +5°C° 0.4 mm 10 mps 744 mmHg 72%
    03:00 +3°C° 0.4 mm 10 mps 744 mmHg 73%
    04:00 +2°C° 0.4 mm 9 mps 744 mmHg 73%
    05:00 +2°C° 0.1 mm 9 mps 744 mmHg 71%
    06:00 +2°C° 0.1 mm 8 mps 745 mmHg 70%
    07:00 +3°C° 0.1 mm 7 mps 745 mmHg 68%
    08:00 +2°C° 0 mm 8 mps 745 mmHg 69%
    09:00 +2°C° 0 mm 8 mps 745 mmHg 70%
    10:00 +4°C° 0 mm 8 mps 744 mmHg 71%
    11:00 +2°C° 0.1 mm 8 mps 744 mmHg 74%
    12:00 +2°C° 0.1 mm 8 mps 744 mmHg 78%
    13:00 +2°C° 0.1 mm 8 mps 744 mmHg 81%
    14:00 +3°C° 0.2 mm 7 mps 742 mmHg 83%
    15:00 +3°C° 0.2 mm 6 mps 741 mmHg 84%
    16:00 +2°C° 0.2 mm 5 mps 740 mmHg 85%
    17:00 +3°C° 1.3 mm 4 mps 738 mmHg 89%
    18:00 +3°C° 1.3 mm 3 mps 737 mmHg 92%
    19:00 +4°C° 1.3 mm 2 mps 735 mmHg 96%
    20:00 +2°C° 2.3 mm 3 mps 734 mmHg 96%
    21:00 +2°C° 2.3 mm 3 mps 733 mmHg 96%
    22:00 0°C° 2.3 mm 4 mps 733 mmHg 96%
    23:00 -1°C° 1.5 mm 6 mps 735 mmHg 95%

    Day after tomorrow, 24 February, Monday

    Time Temperature Precipitation Wind Pressure Humidity
    00:00 -1°C° 1.5 mm 7 mps 737 mmHg 95%
    01:00 -1°C° 1.5 mm 9 mps 739 mmHg 95%
    02:00 -1°C° 0.1 mm 9 mps 740 mmHg 90%
    03:00 -1°C° 0.1 mm 9 mps 741 mmHg 85%
    04:00 -1°C° 0.1 mm 9 mps 742 mmHg 81%
    05:00 -1°C° 0 mm 9 mps 744 mmHg 82%
    06:00 -1°C° 0 mm 9 mps 745 mmHg 83%
    07:00 -1°C° 0 mm 9 mps 746 mmHg 84%
    08:00 -1°C° 0 mm 9 mps 747 mmHg 81%
    09:00 0°C° 0 mm 8 mps 747 mmHg 78%
    10:00 +1°C° 0 mm 8 mps 748 mmHg 75%
    11:00 +1°C° 0 mm 8 mps 748 mmHg 75%
    12:00 +2°C° 0 mm 7 mps 748 mmHg 75%
    13:00 +2°C° 0 mm 7 mps 748 mmHg 75%
    14:00 +2°C° 0 mm 7 mps 748 mmHg 74%
    15:00 0°C° 0 mm 7 mps 748 mmHg 73%
    16:00 +1°C° 0 mm 6 mps 747 mmHg 72%
    17:00 +1°C° 0 mm 5 mps 747 mmHg 75%
    18:00 0°C° 0 mm 4 mps 747 mmHg 77%
    19:00 +1°C° 0 mm 3 mps 746 mmHg 80%
    20:00 +1°C° 0 mm 3 mps 745 mmHg 80%
    21:00 +1°C° 0 mm 3 mps 745 mmHg 79%
    22:00 +1°C° 0 mm 3 mps 744 mmHg 79%
    23:00 +1°C° 0.1 mm 5 mps 743 mmHg 81%

    25 February, Tuesday

    Time Temperature Precipitation Wind Pressure Humidity
    00:00 +1°C° 0.1 mm 6 mps 742 mmHg 82%
    01:00 0°C° 0.1 mm 7 mps 741 mmHg 84%
    02:00 +1°C° 0.4 mm 8 mps 740 mmHg 83%
    03:00 +2°C° 0.4 mm 8 mps 738 mmHg 82%
    04:00 +3°C° 0.4 mm 9 mps 737 mmHg 81%
    05:00 +5°C° 0.2 mm 8 mps 737 mmHg 83%
    06:00 +5°C° 0.2 mm 8 mps 737 mmHg 85%
    07:00 +6°C° 0.2 mm 8 mps 737 mmHg 87%
    08:00 +6°C° 0 mm 9 mps 736 mmHg 82%
    09:00 +7°C° 0 mm 9 mps 736 mmHg 78%
    10:00 +8°C° 0 mm 9 mps 736 mmHg 73%
    11:00 +8°C° 0.1 mm 9 mps 736 mmHg 70%
    12:00 +10°C° 0.1 mm 9 mps 736 mmHg 66%
    13:00 +10°C° 0.1 mm 9 mps 736 mmHg 62%
    14:00 +10°C° 0.1 mm 8 mps 735 mmHg 64%
    15:00 +9°C° 0.1 mm 7 mps 735 mmHg 66%
    16:00 +9°C° 0.1 mm 6 mps 734 mmHg 68%
    17:00 +8°C° 0.2 mm 6 mps 734 mmHg 70%
    18:00 +7°C° 0.2 mm 5 mps 734 mmHg 72%
    19:00 +6°C° 0.2 mm 5 mps 734 mmHg 74%
    20:00 +5°C° 0.1 mm 5 mps 734 mmHg 73%
    21:00 +5°C° 0.1 mm 4 mps 734 mmHg 72%
    22:00 +4°C° 0.1 mm 3 mps 734 mmHg 71%
    23:00 +4°C° 0 mm 3 mps 734 mmHg 72%

    26 February, Wednesday

    Time Temperature Precipitation Wind Pressure Humidity
    00:00 +4°C° 0 mm 3 mps 734 mmHg 72%
    01:00 +3°C° 0 mm 3 mps 734 mmHg 73%
    02:00 +3°C° 0 mm 4 mps 734 mmHg 73%
    03:00 +1°C° 0 mm 4 mps 734 mmHg 74%
    04:00 +1°C° 0 mm 4 mps 733 mmHg 74%
    05:00 +2°C° 0 mm 3 mps 733 mmHg 76%
    06:00 +1°C° 0 mm 3 mps 733 mmHg 77%
    07:00 +1°C° 0 mm 3 mps 733 mmHg 79%
    08:00 +2°C° 0 mm 3 mps 733 mmHg 75%
    09:00 +3°C° 0 mm 3 mps 733 mmHg 70%
    10:00 +4°C° 0 mm 4 mps 733 mmHg 66%
    11:00 +5°C° 0 mm 4 mps 733 mmHg 64%
    12:00 +7°C° 0 mm 3 mps 733 mmHg 62%
    13:00 +7°C° 0 mm 3 mps 733 mmHg 60%
    14:00 +7°C° 0 mm 3 mps 732 mmHg 61%
    15:00 +7°C° 0 mm 2 mps 732 mmHg 61%
    16:00 +8°C° 0 mm 1 mps 732 mmHg 62%
    17:00 +7°C° 0 mm 1 mps 732 mmHg 65%
    18:00 +6°C° 0 mm 1 mps 733 mmHg 68%
    19:00 +5°C° 0 mm 0 mps 733 mmHg 71%
    20:00 +6°C° 0 mm 1 mps 733 mmHg 72%
    21:00 +5°C° 0 mm 1 mps 734 mmHg 74%
    22:00 +5°C° 0 mm 1 mps 734 mmHg 76%
    23:00 +5°C° 0.5 mm 1 mps 734 mmHg 81%

    27 February, Thursday

    Time Temperature Precipitation Wind Pressure Humidity
    00:00 +3°C° 0.5 mm 2 mps 735 mmHg 87%
    01:00 +3°C° 0.5 mm 2 mps 735 mmHg 93%
    02:00 +1°C° 1.5 mm 3 mps 735 mmHg 94%
    03:00 0°C° 1.5 mm 5 mps 736 mmHg 95%
    04:00 -2°C° 1.5 mm 6 mps 736 mmHg 96%
    05:00 -2°C° 0.3 mm 6 mps 737 mmHg 92%
    06:00 -2°C° 0.3 mm 6 mps 737 mmHg 88%
    07:00 -2°C° 0.3 mm 6 mps 738 mmHg 84%
    08:00 -2°C° 0 mm 6 mps 738 mmHg 84%
    09:00 -2°C° 0 mm 6 mps 739 mmHg 84%
    10:00 -2°C° 0 mm 6 mps 740 mmHg 84%
    11:00 -1°C° 0.1 mm 6 mps 740 mmHg 82%
    12:00 -1°C° 0.1 mm 6 mps 741 mmHg 80%
    13:00 +1°C° 0.1 mm 6 mps 741 mmHg 78%
    14:00 +1°C° 0.1 mm 6 mps 741 mmHg 75%
    15:00 +1°C° 0.1 mm 6 mps 742 mmHg 72%
    16:00 +1°C° 0.1 mm 6 mps 742 mmHg 70%
    17:00 0°C° 0 mm 5 mps 742 mmHg 73%
    18:00 -1°C° 0 mm 4 mps 743 mmHg 76%
    19:00 0°C° 0 mm 3 mps 743 mmHg 80%
    20:00 -1°C° 0 mm 3 mps 743 mmHg 81%
    21:00 -1°C° 0 mm 2 mps 744 mmHg 83%
    22:00 -1°C° 0 mm 2 mps 744 mmHg 85%
    23:00 -2°C° 0 mm 2 mps 744 mmHg 84%
    Show more